GW4516 Weather Reports


time (UTC)temp
F
wind
direction
speed
knots
gust
knots
rain 1hr
in
rain 24hr
in
rain mn
in
humidity
%
barometer
mb
20260502162916 58 222 1.7 2.6 0.00 0.00 0.00 32 1025.2
20260502162015 57 292 1.7 4.3 0.00 0.00 0.00 32 1025.3
20260502151116 55 247 0.0 1.7 0.00 0.00 0.00 41 1025.9
20260502150214 54 248 1.7 2.6 0.00 0.00 0.00 41 1026.1
20260502150116 54 276 1.7 3.5 0.00 0.00 0.00 41 1026.1
20260502130514 38 247 0.9 1.7 0.00 0.00 0.00 84 1026.4
20260502130416 37 247 1.7 1.7 0.00 0.00 0.00 84 1026.4
20260502123515 33 292 0.9 0.9 0.00 0.00 0.00 93 1025.9
20260502120617 30 292 0.0 0.0 0.00 0.00 0.00 94 1025.7
20260502115614 29 292 0.0 0.0 0.00 0.00 0.00 94 1025.6
20260502113615 29 292 0.0 0.0 0.00 0.00 0.00 94 1025.5
20260502112616 29 292 0.0 0.0 0.00 0.01 0.00 93 1025.4
20260502111614 29 292 0.0 0.0 0.00 0.01 0.00 92 1025.4
20260502110616 29 292 0.0 0.0 0.00 0.01 0.00 93 1025.3
20260502105714 29 292 0.0 0.0 0.00 0.01 0.00 93 1025.3
20260502104715 29 292 0.0 0.0 0.00 0.01 0.00 92 1025.3
20260502103716 29 292 0.0 0.0 0.00 0.01 0.00 91 1025.2
20260502100716 29 292 0.0 0.0 0.00 0.01 0.00 91 1025.2
20260502090717 30 292 0.0 0.0 0.00 0.01 0.00 90 1025.0
20260502071114 32 292 0.0 0.0 0.00 0.01 0.00 84 1025.3
20260502070116 33 292 0.0 0.0 0.00 0.01 0.00 84 1025.4
20260502063215 33 292 0.0 0.0 0.00 0.01 0.00 82 1025.5
20260502062216 34 292 0.0 0.0 0.00 0.01 0.00 81 1025.5
20260502061215 34 292 0.0 0.0 0.00 0.01 0.00 82 1025.5
20260502060215 34 292 0.0 0.0 0.00 0.01 0.00 81 1025.5
20260502054213 34 292 0.0 0.0 0.00 0.01 0.00 78 1025.4
20260502053214 34 292 0.0 0.0 0.00 0.01 0.00 76 1025.3
20260502052216 35 292 0.0 0.0 0.00 0.01 0.00 77 1025.2
20260502052116 35 292 0.0 0.0 0.00 0.01 0.00 77 1025.3
20260502050115 36 292 0.0 0.0 0.00 0.01 0.00 73 1025.2
20260502045125 37 292 0.0 0.0 0.00 0.01 0.01 72 1025.2
20260502044123 37 292 0.0 0.0 0.00 0.01 0.01 69 1025.2
20260502043126 38 292 0.0 0.0 0.00 0.01 0.01 67 1025.2
20260502041125 39 292 0.0 0.0 0.00 0.01 0.01 63 1025.2
20260502040124 39 337 0.0 0.0 0.00 0.01 0.01 61 1025.1
20260502033226 42 337 0.0 0.0 0.00 0.01 0.01 55 1025.0
20260502031228 43 337 0.0 0.0 0.00 0.01 0.01 54 1025.0
20260502030225 43 360 0.0 0.9 0.00 0.01 0.01 53 1024.9
20260502024327 45 292 0.0 0.9 0.00 0.01 0.01 51 1024.7
20260502021326 46 347 0.9 2.6 0.00 0.01 0.01 48 1024.6
20260502020325 47 343 0.9 1.7 0.00 0.01 0.01 48 1024.3
20260502015323 47 337 0.0 0.0 0.00 0.01 0.01 47 1024.2
20260502013323 49 337 0.0 0.0 0.00 0.01 0.01 45 1024.0
20260502012323 49 292 0.0 0.0 0.00 0.01 0.01 44 1023.9
20260502010425 50 292 0.0 0.0 0.00 0.01 0.01 43 1023.8
20260502005425 50 337 0.0 0.9 0.00 0.01 0.01 42 1023.7
20260502005326 50 337 0.0 0.0 0.00 0.01 0.01 42 1023.6
20260502004424 51 342 1.7 4.3 0.00 0.01 0.01 41 1023.5
20260502003427 51 351 2.6 5.2 0.00 0.01 0.01 41 1023.5
20260502001427 52 7 0.0 3.5 0.00 0.01 0.01 40 1023.3
20260502000524 52 154 0.0 1.7 0.00 0.01 0.01 40 1023.3
20260501235525 52 49 0.0 3.5 0.00 0.01 0.01 40 1023.3
20260501232526 52 311 0.9 2.6 0.00 0.01 0.01 40 1023.3
20260501231624 52 340 0.0 1.7 0.00 0.01 0.01 40 1023.3
20260501230626 52 345 2.6 5.2 0.00 0.01 0.01 40 1023.2
20260501225624 52 332 0.9 3.5 0.00 0.01 0.01 40 1023.3
20260501224625 53 292 0.0 0.9 0.00 0.01 0.01 40 1023.2
20260501223626 53 2 0.9 2.6 0.00 0.01 0.01 42 1023.1
20260501223526 53 330 1.7 3.5 0.00 0.01 0.01 42 1023.2
20260501222624 53 22 0.0 0.9 0.00 0.01 0.01 42 1023.1
20260501221625 53 10 0.9 2.6 0.00 0.01 0.01 42 1023.1
20260501220723 53 96 0.0 0.9 0.00 0.01 0.01 42 1023.1
20260501215724 53 6 2.6 7.0 0.00 0.01 0.01 42 1023.1
20260501213823 54 8 2.6 5.2 0.00 0.01 0.01 41 1023.1
20260501212826 54 71 2.6 4.3 0.00 0.01 0.01 42 1023.0
20260501211825 53 25 1.7 8.7 0.00 0.01 0.01 42 1023.1
20260501210923 52 302 0.9 3.5 0.00 0.01 0.01 43 1023.3
20260501205925 52 294 1.7 5.2 0.00 0.01 0.01 44 1023.4
20260501204925 52 356 3.5 5.2 0.00 0.01 0.01 45 1023.3
20260501204826 52 18 1.7 4.3 0.00 0.01 0.01 45 1023.3
20260501203824 52 8 1.7 4.3 0.00 0.01 0.01 46 1023.5
20260501202825 53 337 2.6 4.3 0.00 0.01 0.01 44 1023.4
20260501201924 53 330 1.7 3.5 0.00 0.01 0.01 43 1023.3
20260501200923 54 38 0.9 2.6 0.00 0.01 0.01 45 1023.4
20260501195924 53 310 0.9 2.6 0.00 0.01 0.01 46 1023.4
20260501194925 52 270 0.0 1.7 0.00 0.01 0.01 47 1023.5
20260501192925 50 351 2.6 4.3 0.00 0.01 0.01 51 1023.3
20260501191923 50 269 1.7 3.5 0.00 0.01 0.01 52 1023.7
20260501185924 50 25 0.9 1.7 0.00 0.01 0.01 51 1023.5
20260501184924 51 286 1.7 2.6 0.00 0.01 0.01 49 1023.5
20260501183923 52 334 3.5 6.1 0.00 0.01 0.01 45 1023.3
20260501182926 52 352 1.7 3.5 0.00 0.01 0.01 43 1023.3
20260501182023 53 329 1.7 5.2 0.00 0.01 0.01 43 1023.3
20260501180023 53 15 1.7 4.3 0.00 0.01 0.01 45 1023.2
20260501175123 52 312 0.9 3.5 0.00 0.01 0.01 45 1023.3
20260501174125 52 16 2.6 5.2 0.00 0.01 0.01 45 1023.2
20260501172123 54 279 0.9 2.6 0.00 0.01 0.01 43 1023.2